User: anonymous   Login
Location: Unspecified
(0.0000°N, 0.0000°E)
Time: 06:52:31
(UTC+02:00)
Language:

OPAL - Orbit

View from above orbital plane
View from above orbital plane
View from above satellite
View from above satellite

Ground track
Ground track

The orbit data is extracted from the following two-line orbital elements,

1 26063U 00004C   17204.50375669 -.00000020 +00000-0 +13255-4 0  9999
2 26063 100.2286 214.8736 0036154 205.2352 154.7063 14.36668651916397
Epoch (UTC): 23 July 2017 12:05:24
Eccentricity: 0.0036154
inclination: 100.2286°
perigee height: 743 km
apogee height: 795 km
right ascension of ascending node: 214.8736°
argument of perigee: 205.2352°
revolutions per day: 14.36668651
mean anomaly at epoch: 154.7063°
orbit number at epoch: 91639

The dashed part of the orbit path shows where the satellite is in the earth's shadow,  

DLR